Weather History for Homestead AFB, FL

Change the Weather History Date:

Thursday, February 6, 2014

  Actual Average Record
Temperature  
Mean Temperature 74 °F -  
Max Temperature 82 °F 77 °F 87 °F (1949)
Min Temperature 67 °F 54 °F 29 °F (1947)
Cooling Degree Days 10    
Growing Degree Days 24 (Base 50)    
Moisture  
Dew Point 70 °F    
Average Humidity 92    
Maximum Humidity 100    
Minimum Humidity 68    
Precipitation  
Precipitation 0.00 in - - ()
Sea Level Pressure  
Sea Level Pressure 30.08 in    
Wind  
Wind Speed 2 mph (SE)    
Max Wind Speed 12 mph    
Max Gust Speed -    
Visibility 8 miles    
Events Fog    
Averages and records for this station are not official NWS values.
T = Trace of Precipitation, MM = Missing Value Source: NWS Daily Summary

Daily Weather History Graph

Daily Weather History Graph

Search for Another Location

Airport:

Trip Planner

Search our weather history database for the weather conditions in past years. The results will help you decide how hot, cold, wet, or windy it might be!

Date:

Astronomy

Feb. 06, 2014 Rise Set
Actual Time 7:02 AM EST 6:09 PM EST
Civil Twilight 6:38 AM EST 6:33 PM EST
Nautical Twilight 6:11 AM EST 7:00 PM EST
Astronomical Twilight 5:44 AM EST 7:27 PM EST
Moon 11:41 AM EST (2/6) 12:16 AM EST (2/6)
Length of Visible Light 11h 54m
Length of Day
11h 07m
Waxing Crescent, 49% of the Moon is Illuminated
Feb 6
Waxing Crescent
Feb 6
First Quarter
Feb 14
Full
Feb 22
Last Quarter
Mar 1
New

Hourly Weather History & Observations

Time (EST) Temp. Heat Index Dew Point Humidity Pressure Visibility Wind Dir Wind Speed Gust Speed Precip Events Conditions
12:58 AM 70.5 °F - 70.5 °F 100% 30.08 in 10.0 mi Calm Calm - N/A   Partly Cloudy
1:21 AM 69.8 °F - 69.8 °F 100% 30.06 in 8.0 mi Calm Calm - N/A   Clear
1:36 AM 69.8 °F - 69.8 °F 100% 30.06 in 10.0 mi Calm Calm - N/A   Clear
1:58 AM 70.5 °F - 70.5 °F 100% 30.07 in 10.0 mi Calm Calm - N/A   Clear
2:23 AM 71.6 °F - 71.6 °F 100% 30.05 in 6.0 mi Calm Calm - N/A   Clear
2:44 AM 71.6 °F - 71.6 °F 100% 30.05 in 10.0 mi Calm Calm - N/A   Clear
2:58 AM 70.3 °F - 70.3 °F 100% 30.06 in 9.0 mi SW 1.2 mph - N/A   Clear
3:03 AM 69.8 °F - 69.8 °F 100% 30.05 in 8.0 mi SW 1.2 mph - N/A   Clear
3:08 AM 69.8 °F - 69.8 °F 100% 30.05 in 3.0 mi Calm Calm - N/A   Clear
3:15 AM 69.8 °F - 69.8 °F 100% 30.05 in 10.0 mi Calm Calm - N/A   Scattered Clouds
3:58 AM 69.4 °F - 69.4 °F 100% 30.06 in 10.0 mi NE 2.3 mph - N/A   Scattered Clouds
4:58 AM 67.8 °F - 67.8 °F 100% 30.06 in 10.0 mi Calm Calm - N/A   Clear
5:03 AM 68.0 °F - 68.0 °F 100% 30.05 in 7.0 mi Calm Calm - N/A   Clear
6:58 AM 68.4 °F - 68.4 °F 100% 30.09 in 10.0 mi NE 2.3 mph - N/A Fog Shallow Fog
7:58 AM 68.7 °F - 68.7 °F 100% 30.11 in 10.0 mi Calm Calm - N/A   Clear
8:58 AM 76.5 °F - 76.5 °F 100% 30.12 in 5.0 mi ESE 2.3 mph - N/A   Clear
9:58 AM 79.9 °F - 74.3 °F 83% 30.12 in 6.0 mi SE 5.8 mph - N/A   Haze
10:58 AM 80.4 °F 84.1 °F 70.9 °F 73% 30.13 in 7.0 mi SE 5.8 mph - N/A   Scattered Clouds
11:58 AM 82.4 °F 86.7 °F 70.9 °F 68% 30.11 in 5.0 mi SSE 8.1 mph - N/A   Haze
12:58 PM 82.0 °F 86.3 °F 71.1 °F 69% 30.09 in 5.0 mi SE 9.2 mph - N/A   Haze
1:58 PM 82.8 °F 87.4 °F 71.2 °F 68% 30.06 in 4.0 mi SE 10.4 mph - N/A   Haze
2:58 PM 82.2 °F 86.6 °F 71.1 °F 69% 30.06 in 5.0 mi ESE 9.2 mph - N/A   Haze
3:58 PM 81.0 °F 84.6 °F 70.2 °F 70% 30.05 in 4.0 mi SE 11.5 mph - N/A   Haze
4:58 PM 80.1 °F 83.6 °F 71.2 °F 74% 30.05 in 4.0 mi SE 8.1 mph - N/A   Haze
5:58 PM 77.5 °F - 69.8 °F 77% 30.06 in 4.0 mi SE 5.8 mph - N/A   Haze
6:58 PM 73.8 °F - 68.7 °F 84% 30.07 in 10.0 mi SE 2.3 mph - N/A   Clear
7:58 PM 72.1 °F - 69.1 °F 90% 30.09 in 10.0 mi SSE 2.3 mph - N/A   Clear
8:58 PM 71.1 °F - 71.1 °F 100% 30.09 in 10.0 mi SE 3.5 mph - N/A   Clear
9:58 PM 70.0 °F - 70.0 °F 100% 30.11 in 10.0 mi Calm Calm - N/A   Clear
10:58 PM 68.9 °F - 68.9 °F 100% 30.10 in 10.0 mi SE 3.5 mph - N/A   Clear
11:23 PM 69.8 °F - 69.8 °F 100% 30.09 in 9.0 mi SE 4.6 mph - N/A   Clear
11:28 PM 69.8 °F - 69.8 °F 100% 30.09 in 10.0 mi SE 4.6 mph - N/A   Clear
11:58 PM 68.0 °F - 68.0 °F 100% 30.09 in 10.0 mi SE 3.5 mph - N/A   Clear